| time (UTC) | temp F | wind direction | speed MPH | gust MPH | rain 1hr in | rain 24hr in | rain mn in | humidity % | barometer mb |
| 20260509150509 | 74 | 198 | 2.0 | 5.0 | 0.00 | 0.05 | 0.03 | 84 | 1014.0 |
| 20260509150022 | 74 | 247 | 1.0 | 4.0 | 0.00 | 0.05 | 0.03 | 85 | 1014.1 |
| 20260509145510 | 74 | 231 | 2.0 | 3.0 | 0.00 | 0.05 | 0.03 | 85 | 1014.2 |
| 20260509145011 | 74 | 231 | 1.0 | 6.0 | 0.00 | 0.05 | 0.03 | 86 | 1014.1 |
| 20260509144532 | 73 | 174 | 2.0 | 6.0 | 0.00 | 0.05 | 0.03 | 86 | 1014.2 |
| 20260509144007 | 73 | 191 | 4.0 | 6.0 | 0.00 | 0.05 | 0.03 | 87 | 1014.1 |
| 20260509143512 | 73 | 196 | 1.0 | 5.0 | 0.00 | 0.05 | 0.03 | 88 | 1014.1 |
| 20260509143030 | 72 | 191 | 3.0 | 5.0 | 0.00 | 0.05 | 0.03 | 90 | 1014.1 |
| 20260509142512 | 72 | 236 | 1.0 | 3.0 | 0.00 | 0.05 | 0.03 | 92 | 1014.0 |
| 20260509142004 | 72 | 91 | 2.0 | 3.0 | 0.00 | 0.05 | 0.03 | 91 | 1013.9 |
| 20260509141518 | 71 | 80 | 2.0 | 5.0 | 0.00 | 0.05 | 0.03 | 91 | 1013.9 |
| 20260509141008 | 71 | 63 | 3.0 | 5.0 | 0.00 | 0.05 | 0.03 | 92 | 1013.9 |
| 20260509140509 | 71 | 50 | 3.0 | 3.0 | 0.00 | 0.05 | 0.03 | 91 | 1013.9 |
| 20260509140004 | 71 | 62 | 2.0 | 3.0 | 0.00 | 0.05 | 0.03 | 91 | 1014.0 |
| 20260509135506 | 71 | 41 | 2.0 | 3.0 | 0.00 | 0.05 | 0.03 | 91 | 1014.0 |
| 20260509135003 | 71 | 39 | 2.0 | 3.0 | 0.00 | 0.05 | 0.03 | 91 | 1013.8 |
| 20260509134506 | 71 | 9 | 2.0 | 3.0 | 0.00 | 0.05 | 0.03 | 91 | 1013.8 |
| 20260509134003 | 71 | 26 | 2.0 | 3.0 | 0.00 | 0.05 | 0.03 | 91 | 1013.9 |
| 20260509133503 | 71 | 37 | 2.0 | 3.0 | 0.00 | 0.05 | 0.03 | 91 | 1013.8 |
| 20260509133010 | 71 | 54 | 2.0 | 2.0 | 0.00 | 0.05 | 0.03 | 91 | 1013.8 |
| 20260509132504 | 71 | 64 | 1.0 | 2.0 | 0.00 | 0.05 | 0.03 | 92 | 1013.8 |
| 20260509132006 | 70 | 33 | 0.0 | 2.0 | 0.00 | 0.05 | 0.03 | 92 | 1013.8 |
| 20260509131513 | 70 | 33 | 1.0 | 3.0 | 0.00 | 0.05 | 0.03 | 91 | 1013.9 |
| 20260509131008 | 70 | 16 | 2.0 | 4.0 | 0.00 | 0.05 | 0.03 | 91 | 1014.0 |
| 20260509130505 | 70 | 13 | 3.0 | 4.0 | 0.00 | 0.05 | 0.03 | 91 | 1014.1 |
| 20260509130022 | 70 | 358 | 3.0 | 4.0 | 0.00 | 0.05 | 0.03 | 91 | 1014.1 |
| 20260509125512 | 71 | 53 | 0.0 | 2.0 | 0.00 | 0.05 | 0.03 | 91 | 1014.0 |
| 20260509125008 | 70 | 26 | 0.0 | 3.0 | 0.00 | 0.05 | 0.03 | 91 | 1014.0 |
| 20260509124521 | 70 | 26 | 2.0 | 5.0 | 0.00 | 0.05 | 0.03 | 91 | 1014.0 |
| 20260509124002 | 71 | 23 | 3.0 | 5.0 | 0.00 | 0.05 | 0.03 | 91 | 1014.1 |
| 20260509123504 | 71 | 3 | 4.0 | 5.0 | 0.00 | 0.05 | 0.03 | 91 | 1014.2 |
| 20260509123016 | 71 | 11 | 2.0 | 3.0 | 0.00 | 0.05 | 0.03 | 90 | 1014.0 |
| 20260509122503 | 71 | 6 | 2.0 | 2.0 | 0.00 | 0.05 | 0.03 | 90 | 1013.8 |
| 20260509122004 | 71 | 64 | 0.0 | 1.0 | 0.00 | 0.05 | 0.03 | 90 | 1013.8 |
| 20260509121513 | 71 | 72 | 0.0 | 1.0 | 0.00 | 0.05 | 0.03 | 90 | 1013.6 |
| 20260509121003 | 72 | 88 | 0.0 | 1.0 | 0.00 | 0.05 | 0.03 | 91 | 1013.6 |
| 20260509120503 | 71 | 91 | 0.0 | 2.0 | 0.00 | 0.05 | 0.03 | 91 | 1013.5 |
| 20260509120016 | 71 | 114 | 0.0 | 2.0 | 0.00 | 0.05 | 0.03 | 91 | 1013.5 |
| 20260509115507 | 71 | 117 | 1.0 | 2.0 | 0.00 | 0.05 | 0.03 | 92 | 1013.5 |
| 20260509115006 | 70 | 110 | 0.0 | 2.0 | 0.00 | 0.05 | 0.03 | 91 | 1013.6 |
| 20260509114520 | 70 | 129 | 0.0 | 2.0 | 0.00 | 0.05 | 0.03 | 92 | 1013.6 |
| 20260509114010 | 70 | 132 | 0.0 | 4.0 | 0.00 | 0.05 | 0.03 | 92 | 1013.5 |
| 20260509113508 | 70 | 147 | 1.0 | 5.0 | 0.00 | 0.05 | 0.03 | 92 | 1013.3 |
| 20260509113024 | 70 | 148 | 1.0 | 5.0 | 0.00 | 0.05 | 0.03 | 92 | 1013.3 |
| 20260509112505 | 69 | 136 | 3.0 | 5.0 | 0.00 | 0.05 | 0.03 | 92 | 1013.2 |
| 20260509111506 | 69 | 134 | 0.0 | 0.0 | 0.00 | 0.05 | 0.03 | 92 | 1013.2 |
| 20260509111005 | 69 | 126 | 0.0 | 0.0 | 0.00 | 0.05 | 0.03 | 91 | 1013.2 |
| 20260509110505 | 69 | 124 | 0.0 | 0.0 | 0.00 | 0.05 | 0.03 | 91 | 1013.2 |
| 20260509110012 | 69 | 114 | 0.0 | 0.0 | 0.00 | 0.05 | 0.03 | 91 | 1013.0 |
| 20260509105505 | 69 | 82 | 0.0 | 2.0 | 0.00 | 0.05 | 0.03 | 91 | 1012.9 |
| 20260509105003 | 69 | 85 | 0.0 | 2.0 | 0.00 | 0.05 | 0.03 | 91 | 1012.8 |
| 20260509104518 | 69 | 90 | 2.0 | 2.0 | 0.00 | 0.05 | 0.03 | 91 | 1012.7 |
| 20260509104007 | 69 | 120 | 0.0 | 5.0 | 0.00 | 0.05 | 0.03 | 90 | 1012.6 |
| 20260509103506 | 69 | 124 | 2.0 | 5.0 | 0.00 | 0.05 | 0.03 | 90 | 1012.7 |
| 20260509103022 | 69 | 122 | 4.0 | 5.0 | 0.00 | 0.05 | 0.03 | 90 | 1012.5 |
| 20260509102508 | 69 | 124 | 3.0 | 4.0 | 0.00 | 0.05 | 0.03 | 90 | 1012.5 |
| 20260509102012 | 69 | 110 | 2.0 | 4.0 | 0.00 | 0.05 | 0.03 | 90 | 1012.4 |
| 20260509101532 | 69 | 103 | 2.0 | 3.0 | 0.00 | 0.05 | 0.03 | 89 | 1012.5 |
| 20260509101014 | 69 | 110 | 2.0 | 3.0 | 0.00 | 0.05 | 0.03 | 89 | 1012.4 |
| 20260509100507 | 69 | 128 | 2.0 | 3.0 | 0.00 | 0.05 | 0.03 | 88 | 1012.5 |
| 20260509100012 | 69 | 115 | 2.0 | 3.0 | 0.00 | 0.05 | 0.03 | 88 | 1012.5 |
| 20260509095505 | 69 | 108 | 2.0 | 3.0 | 0.00 | 0.05 | 0.03 | 88 | 1012.4 |
| 20260509095006 | 68 | 102 | 2.0 | 3.0 | 0.00 | 0.05 | 0.03 | 88 | 1012.3 |
| 20260509094515 | 69 | 91 | 1.0 | 3.0 | 0.00 | 0.05 | 0.03 | 89 | 1012.4 |
| 20260509094007 | 69 | 83 | 2.0 | 3.0 | 0.00 | 0.05 | 0.03 | 89 | 1012.3 |
| 20260509093507 | 68 | 96 | 2.0 | 2.0 | 0.00 | 0.05 | 0.03 | 90 | 1012.3 |
| 20260509093020 | 68 | 98 | 0.0 | 2.0 | 0.00 | 0.05 | 0.03 | 89 | 1012.4 |
| 20260509092504 | 68 | 80 | 0.0 | 3.0 | 0.00 | 0.05 | 0.03 | 89 | 1012.5 |
| 20260509092009 | 68 | 99 | 1.0 | 3.0 | 0.00 | 0.05 | 0.03 | 89 | 1012.5 |
| 20260509091531 | 68 | 107 | 1.0 | 4.0 | 0.00 | 0.05 | 0.03 | 90 | 1012.5 |
| 20260509091010 | 68 | 85 | 3.0 | 4.0 | 0.00 | 0.05 | 0.03 | 90 | 1012.4 |
| 20260509090507 | 68 | 98 | 2.0 | 3.0 | 0.00 | 0.05 | 0.03 | 90 | 1012.5 |
| 20260509090026 | 68 | 102 | 0.0 | 3.0 | 0.00 | 0.05 | 0.03 | 90 | 1012.7 |
| 20260509085512 | 68 | 162 | 0.0 | 4.0 | 0.00 | 0.05 | 0.03 | 89 | 1012.7 |
| 20260509085003 | 68 | 138 | 3.0 | 4.0 | 0.00 | 0.05 | 0.03 | 90 | 1012.9 |
| 20260509084513 | 68 | 105 | 0.0 | 3.0 | 0.00 | 0.05 | 0.03 | 90 | 1013.0 |
| 20260509084007 | 68 | 329 | 0.0 | 1.0 | 0.00 | 0.05 | 0.03 | 90 | 1013.4 |
| 20260509083508 | 68 | 9 | 0.0 | 3.0 | 0.00 | 0.05 | 0.03 | 89 | 1013.2 |
| 20260509083017 | 68 | 10 | 2.0 | 3.0 | 0.00 | 0.05 | 0.03 | 90 | 1013.2 |
| 20260509082504 | 68 | 108 | 1.0 | 3.0 | 0.00 | 0.05 | 0.03 | 90 | 1012.9 |
| 20260509082007 | 67 | 114 | 2.0 | 3.0 | 0.00 | 0.05 | 0.03 | 91 | 1012.6 |
| 20260509081524 | 67 | 153 | 0.0 | 3.0 | 0.00 | 0.05 | 0.03 | 90 | 1012.8 |
| 20260509081009 | 67 | 153 | 2.0 | 3.0 | 0.00 | 0.05 | 0.03 | 90 | 1012.6 |
| 20260509080512 | 67 | 190 | 2.0 | 2.0 | 0.00 | 0.05 | 0.03 | 90 | 1012.9 |
| 20260509080024 | 67 | 220 | 0.0 | 1.0 | 0.00 | 0.05 | 0.03 | 89 | 1013.1 |
| 20260509075508 | 67 | 197 | 0.0 | 0.0 | 0.00 | 0.05 | 0.03 | 89 | 1013.2 |
| 20260509075011 | 67 | 157 | 0.0 | 1.0 | 0.00 | 0.05 | 0.03 | 88 | 1013.3 |
| 20260509074528 | 68 | 157 | 0.0 | 1.0 | 0.00 | 0.05 | 0.03 | 88 | 1013.3 |
| 20260509074013 | 68 | 34 | 0.0 | 3.0 | 0.00 | 0.05 | 0.03 | 88 | 1013.3 |
| 20260509073516 | 68 | 34 | 1.0 | 3.0 | 0.00 | 0.05 | 0.03 | 88 | 1013.1 |
| 20260509073028 | 68 | 66 | 2.0 | 4.0 | 0.00 | 0.05 | 0.03 | 88 | 1012.9 |
| 20260509072503 | 68 | 147 | 3.0 | 4.0 | 0.00 | 0.05 | 0.03 | 88 | 1012.8 |
| 20260509072009 | 68 | 131 | 3.0 | 4.0 | 0.00 | 0.05 | 0.03 | 87 | 1012.9 |
| 20260509071519 | 68 | 111 | 2.0 | 6.0 | 0.00 | 0.05 | 0.03 | 87 | 1013.1 |
| 20260509071008 | 68 | 104 | 3.0 | 6.0 | 0.00 | 0.05 | 0.03 | 87 | 1013.0 |
| 20260509070509 | 68 | 120 | 5.0 | 6.0 | 0.00 | 0.05 | 0.03 | 87 | 1012.9 |
| 20260509070026 | 68 | 113 | 4.0 | 5.0 | 0.00 | 0.05 | 0.03 | 87 | 1013.0 |
| 20260509065508 | 68 | 99 | 4.0 | 6.0 | 0.00 | 0.05 | 0.03 | 88 | 1013.2 |
| 20260509065011 | 66 | 112 | 2.0 | 6.0 | 0.00 | 0.05 | 0.03 | 88 | 1013.3 |
| 20260509064526 | 67 | 316 | 0.0 | 2.0 | 0.00 | 0.05 | 0.03 | 88 | 1013.5 |
| 20260509064010 | 67 | 316 | 0.0 | 2.0 | 0.00 | 0.05 | 0.03 | 88 | 1013.5 |
| 20260509063513 | 67 | 328 | 1.0 | 2.0 | 0.00 | 0.05 | 0.03 | 87 | 1013.5 |
| 20260509063032 | 67 | 323 | 0.0 | 1.0 | 0.00 | 0.05 | 0.03 | 86 | 1013.7 |
| 20260509062512 | 67 | 354 | 0.0 | 1.0 | 0.00 | 0.05 | 0.03 | 85 | 1013.7 |
| 20260509062015 | 67 | 27 | 0.0 | 2.0 | 0.00 | 0.05 | 0.03 | 84 | 1013.9 |
| 20260509061517 | 68 | 27 | 0.0 | 3.0 | 0.00 | 0.05 | 0.03 | 85 | 1013.8 |
| 20260509061003 | 67 | 42 | 2.0 | 3.0 | 0.00 | 0.05 | 0.03 | 85 | 1013.8 |
| 20260509060503 | 67 | 72 | 2.0 | 3.0 | 0.00 | 0.05 | 0.03 | 88 | 1013.8 |
| 20260509060004 | 67 | 86 | 3.0 | 4.0 | 0.00 | 0.05 | 0.03 | 89 | 1013.8 |
| 20260509055506 | 67 | 72 | 1.0 | 4.0 | 0.00 | 0.05 | 0.03 | 90 | 1014.0 |
| 20260509055001 | 67 | 65 | 1.0 | 4.0 | 0.00 | 0.05 | 0.03 | 91 | 1013.7 |
| 20260509054505 | 67 | 97 | 2.0 | 4.0 | 0.00 | 0.05 | 0.03 | 92 | 1013.5 |
| 20260509054002 | 67 | 19 | 0.0 | 0.0 | 0.00 | 0.05 | 0.03 | 92 | 1013.9 |
| 20260509053503 | 66 | 342 | 0.0 | 0.0 | 0.00 | 0.05 | 0.03 | 92 | 1014.0 |
| 20260509053003 | 66 | 234 | 0.0 | 0.0 | 0.00 | 0.05 | 0.03 | 92 | 1014.5 |
| 20260509052502 | 66 | 203 | 0.0 | 0.0 | 0.01 | 0.05 | 0.03 | 92 | 1014.7 |
| 20260509052003 | 66 | 201 | 0.0 | 1.0 | 0.01 | 0.05 | 0.03 | 91 | 1014.5 |
| 20260509051508 | 66 | 201 | 0.0 | 2.0 | 0.01 | 0.05 | 0.03 | 91 | 1014.6 |
| 20260509051003 | 66 | 203 | 0.0 | 2.0 | 0.01 | 0.05 | 0.03 | 91 | 1014.7 |
| 20260509050503 | 66 | 224 | 0.0 | 3.0 | 0.02 | 0.05 | 0.03 | 91 | 1015.0 |
| 20260509050008 | 67 | 210 | 0.0 | 4.0 | 0.03 | 0.05 | 0.03 | 91 | 1014.8 |
| 20260509045502 | 67 | 167 | 2.0 | 4.0 | 0.03 | 0.05 | 0.03 | 91 | 1015.0 |
| 20260509045003 | 66 | 154 | 1.0 | 3.0 | 0.04 | 0.05 | 0.03 | 91 | 1015.1 |
| 20260509044508 | 66 | 242 | 1.0 | 3.0 | 0.04 | 0.05 | 0.03 | 90 | 1015.4 |
| 20260509044002 | 67 | 220 | 0.0 | 4.0 | 0.05 | 0.05 | 0.03 | 90 | 1015.2 |
| 20260509043503 | 67 | 219 | 0.0 | 5.0 | 0.05 | 0.05 | 0.03 | 90 | 1015.1 |
| 20260509043005 | 67 | 156 | 2.0 | 5.0 | 0.05 | 0.05 | 0.03 | 90 | 1014.8 |
| 20260509042504 | 67 | 174 | 4.0 | 6.0 | 0.04 | 0.04 | 0.02 | 90 | 1014.8 |
| 20260509042002 | 67 | 155 | 2.0 | 7.0 | 0.04 | 0.04 | 0.02 | 90 | 1015.1 |
| 20260509041511 | 67 | 170 | 4.0 | 8.0 | 0.04 | 0.04 | 0.02 | 89 | 1015.4 |
| 20260509041005 | 68 | 165 | 4.0 | 9.0 | 0.04 | 0.04 | 0.02 | 90 | 1015.0 |
| 20260509040502 | 68 | 138 | 7.0 | 9.0 | 0.03 | 0.03 | 0.01 | 90 | 1014.8 |
| 20260509040009 | 68 | 148 | 5.0 | 9.0 | 0.02 | 0.02 | 0.00 | 89 | 1015.1 |
| 20260509035504 | 68 | 139 | 6.0 | 9.0 | 0.02 | 0.02 | 0.02 | 89 | 1015.2 |
| 20260509035003 | 68 | 140 | 7.0 | 8.0 | 0.01 | 0.01 | 0.01 | 89 | 1015.3 |
| 20260509034510 | 68 | 156 | 5.0 | 6.0 | 0.01 | 0.01 | 0.01 | 89 | 1015.6 |
| 20260509034004 | 68 | 145 | 3.0 | 5.0 | 0.00 | 0.00 | 0.00 | 88 | 1015.7 |
| 20260509033505 | 68 | 155 | 3.0 | 5.0 | 0.00 | 0.00 | 0.00 | 88 | 1015.8 |
| 20260509033010 | 68 | 128 | 2.0 | 6.0 | 0.00 | 0.00 | 0.00 | 88 | 1015.9 |
| 20260509032504 | 68 | 134 | 2.0 | 6.0 | 0.00 | 0.00 | 0.00 | 88 | 1015.9 |
| 20260509032003 | 68 | 155 | 4.0 | 6.0 | 0.00 | 0.00 | 0.00 | 87 | 1015.8 |
| 20260509031510 | 68 | 166 | 4.0 | 6.0 | 0.00 | 0.00 | 0.00 | 87 | 1015.9 |
| 20260509031002 | 68 | 155 | 4.0 | 6.0 | 0.00 | 0.00 | 0.00 | 87 | 1016.0 |
| 20260509030505 | 68 | 156 | 3.0 | 5.0 | 0.00 | 0.00 | 0.00 | 87 | 1016.1 |
| 20260509030011 | 67 | 167 | 3.0 | 4.0 | 0.00 | 0.00 | 0.00 | 86 | 1016.2 |
| 20260509025502 | 67 | 191 | 2.0 | 2.0 | 0.00 | 0.00 | 0.00 | 86 | 1016.3 |
| 20260509025003 | 67 | 191 | 0.0 | 2.0 | 0.00 | 0.00 | 0.00 | 86 | 1016.4 |
| 20260509024512 | 68 | 198 | 0.0 | 2.0 | 0.00 | 0.00 | 0.00 | 85 | 1016.4 |
| 20260509024004 | 68 | 193 | 0.0 | 2.0 | 0.00 | 0.00 | 0.00 | 85 | 1016.5 |
| 20260509023504 | 68 | 195 | 2.0 | 2.0 | 0.00 | 0.00 | 0.00 | 84 | 1016.5 |
| 20260509023010 | 68 | 186 | 1.0 | 3.0 | 0.00 | 0.00 | 0.00 | 84 | 1016.3 |
| 20260509022504 | 68 | 153 | 1.0 | 3.0 | 0.00 | 0.00 | 0.00 | 84 | 1016.3 |
| 20260509022004 | 68 | 156 | 1.0 | 3.0 | 0.00 | 0.00 | 0.00 | 83 | 1016.3 |
| 20260509021512 | 68 | 155 | 2.0 | 3.0 | 0.00 | 0.00 | 0.00 | 83 | 1016.4 |
| 20260509021005 | 68 | 152 | 2.0 | 7.0 | 0.00 | 0.00 | 0.00 | 83 | 1016.5 |
| 20260509020503 | 68 | 153 | 2.0 | 7.0 | 0.00 | 0.00 | 0.00 | 83 | 1016.3 |
| 20260509020008 | 68 | 124 | 5.0 | 7.0 | 0.00 | 0.00 | 0.00 | 82 | 1015.9 |
| 20260509015504 | 68 | 109 | 5.0 | 7.0 | 0.00 | 0.00 | 0.00 | 81 | 1015.7 |
| 20260509015003 | 68 | 114 | 5.0 | 7.0 | 0.00 | 0.00 | 0.00 | 80 | 1015.5 |
| 20260509014511 | 68 | 95 | 5.0 | 7.0 | 0.00 | 0.00 | 0.00 | 80 | 1015.5 |
| 20260509014003 | 68 | 108 | 5.0 | 6.0 | 0.00 | 0.00 | 0.00 | 80 | 1015.6 |
| 20260509013505 | 68 | 111 | 3.0 | 5.0 | 0.00 | 0.00 | 0.00 | 81 | 1015.6 |
| 20260509013018 | 68 | 107 | 3.0 | 6.0 | 0.00 | 0.00 | 0.00 | 80 | 1015.5 |
| 20260509012504 | 68 | 117 | 4.0 | 7.0 | 0.00 | 0.00 | 0.00 | 79 | 1015.4 |
| 20260509012004 | 68 | 106 | 5.0 | 8.0 | 0.00 | 0.00 | 0.00 | 79 | 1015.4 |
| 20260509011514 | 68 | 92 | 5.0 | 8.0 | 0.00 | 0.00 | 0.00 | 80 | 1015.3 |
| 20260509011004 | 68 | 84 | 5.0 | 7.0 | 0.00 | 0.00 | 0.00 | 80 | 1015.3 |
| 20260509010504 | 68 | 101 | 5.0 | 7.0 | 0.00 | 0.00 | 0.00 | 80 | 1015.5 |
| 20260509010019 | 68 | 111 | 5.0 | 7.0 | 0.00 | 0.00 | 0.00 | 79 | 1015.5 |
| 20260509005506 | 68 | 110 | 4.0 | 6.0 | 0.00 | 0.00 | 0.00 | 79 | 1015.5 |
| 20260509005004 | 68 | 106 | 3.0 | 6.0 | 0.00 | 0.00 | 0.00 | 79 | 1015.4 |
| 20260509004512 | 68 | 89 | 4.0 | 6.0 | 0.00 | 0.00 | 0.00 | 78 | 1015.4 |
| 20260509004005 | 68 | 86 | 4.0 | 7.0 | 0.00 | 0.00 | 0.00 | 78 | 1015.5 |
| 20260509003505 | 68 | 101 | 4.0 | 7.0 | 0.00 | 0.00 | 0.00 | 78 | 1015.4 |
| 20260509003021 | 68 | 101 | 6.0 | 7.0 | 0.00 | 0.00 | 0.00 | 78 | 1015.3 |
| 20260509002506 | 68 | 109 | 5.0 | 7.0 | 0.00 | 0.00 | 0.00 | 77 | 1015.3 |
| 20260509002003 | 68 | 87 | 5.0 | 7.0 | 0.00 | 0.00 | 0.00 | 79 | 1015.3 |
| 20260509001516 | 68 | 113 | 4.0 | 7.0 | 0.00 | 0.00 | 0.00 | 78 | 1015.4 |
| 20260509001004 | 68 | 115 | 5.0 | 8.0 | 0.00 | 0.00 | 0.00 | 77 | 1015.2 |
| 20260509000504 | 68 | 98 | 5.0 | 9.0 | 0.00 | 0.00 | 0.00 | 76 | 1015.1 |
| 20260509000016 | 68 | 101 | 7.0 | 9.0 | 0.00 | 0.00 | 0.00 | 76 | 1015.0 |
| 20260508235504 | 68 | 98 | 7.0 | 9.0 | 0.00 | 0.00 | 0.00 | 77 | 1015.0 |
| 20260508235005 | 68 | 95 | 7.0 | 9.0 | 0.00 | 0.00 | 0.00 | 77 | 1015.0 |
| 20260508234515 | 68 | 114 | 6.0 | 9.0 | 0.00 | 0.00 | 0.00 | 78 | 1014.9 |
| 20260508234004 | 68 | 98 | 7.0 | 9.0 | 0.00 | 0.00 | 0.00 | 79 | 1014.9 |
| 20260508233510 | 68 | 84 | 6.0 | 8.0 | 0.00 | 0.00 | 0.00 | 79 | 1014.7 |
| 20260508233010 | 68 | 91 | 7.0 | 9.0 | 0.00 | 0.00 | 0.00 | 80 | 1014.8 |
| 20260508232504 | 68 | 80 | 7.0 | 10.0 | 0.00 | 0.00 | 0.00 | 80 | 1014.9 |
| 20260508232006 | 68 | 101 | 6.0 | 10.0 | 0.00 | 0.00 | 0.00 | 80 | 1014.7 |
| 20260508231515 | 68 | 100 | 7.0 | 8.0 | 0.00 | 0.00 | 0.00 | 80 | 1014.8 |
| 20260508231004 | 68 | 89 | 6.0 | 8.0 | 0.00 | 0.00 | 0.00 | 80 | 1014.8 |
| 20260508230507 | 68 | 81 | 7.0 | 8.0 | 0.00 | 0.00 | 0.00 | 81 | 1014.9 |
| 20260508230023 | 68 | 69 | 6.0 | 9.0 | 0.00 | 0.00 | 0.00 | 81 | 1014.9 |
| 20260508225508 | 68 | 112 | 6.0 | 10.0 | 0.00 | 0.00 | 0.00 | 81 | 1014.7 |
| 20260508225009 | 68 | 92 | 8.0 | 10.0 | 0.00 | 0.00 | 0.00 | 81 | 1014.7 |
| 20260508224519 | 68 | 89 | 6.0 | 10.0 | 0.00 | 0.00 | 0.00 | 81 | 1014.7 |
| 20260508224003 | 68 | 99 | 8.0 | 10.0 | 0.00 | 0.00 | 0.00 | 82 | 1014.7 |
| 20260508223503 | 68 | 96 | 8.0 | 10.0 | 0.00 | 0.00 | 0.00 | 82 | 1014.7 |
| 20260508223033 | 68 | 126 | 8.0 | 10.0 | 0.00 | 0.00 | 0.00 | 82 | 1014.6 |
| 20260508222505 | 68 | 87 | 8.0 | 10.0 | 0.00 | 0.00 | 0.00 | 82 | 1014.6 |
| 20260508222005 | 68 | 89 | 7.0 | 11.0 | 0.00 | 0.00 | 0.00 | 80 | 1014.8 |
| 20260508221520 | 68 | 133 | 7.0 | 11.0 | 0.00 | 0.00 | 0.00 | 81 | 1014.6 |
| 20260508221008 | 68 | 101 | 8.0 | 12.0 | 0.00 | 0.00 | 0.00 | 81 | 1014.6 |
| 20260508220505 | 68 | 106 | 9.0 | 12.0 | 0.00 | 0.00 | 0.00 | 81 | 1014.7 |
| 20260508220022 | 68 | 120 | 8.0 | 13.0 | 0.00 | 0.00 | 0.00 | 82 | 1014.6 |
| 20260508215506 | 68 | 101 | 9.0 | 13.0 | 0.00 | 0.00 | 0.00 | 81 | 1014.6 |
| 20260508215009 | 68 | 109 | 9.0 | 12.0 | 0.00 | 0.00 | 0.00 | 81 | 1014.6 |
| 20260508214520 | 68 | 126 | 9.0 | 14.0 | 0.00 | 0.00 | 0.00 | 81 | 1014.7 |
| 20260508214006 | 68 | 108 | 11.0 | 14.0 | 0.00 | 0.00 | 0.00 | 80 | 1014.7 |
| 20260508213507 | 68 | 133 | 8.0 | 11.0 | 0.00 | 0.00 | 0.00 | 80 | 1014.7 |
| 20260508213025 | 68 | 107 | 7.0 | 11.0 | 0.00 | 0.00 | 0.00 | 79 | 1015.0 |
| 20260508212507 | 68 | 111 | 8.0 | 11.0 | 0.00 | 0.00 | 0.00 | 80 | 1015.1 |
| 20260508212009 | 68 | 134 | 9.0 | 11.0 | 0.00 | 0.00 | 0.00 | 78 | 1015.2 |
| 20260508211520 | 68 | 105 | 8.0 | 11.0 | 0.00 | 0.00 | 0.00 | 79 | 1015.4 |
| 20260508211008 | 68 | 125 | 7.0 | 11.0 | 0.00 | 0.00 | 0.00 | 79 | 1015.5 |
| 20260508210508 | 68 | 88 | 8.0 | 11.0 | 0.00 | 0.00 | 0.00 | 78 | 1015.4 |
| 20260508210022 | 68 | 129 | 9.0 | 12.0 | 0.00 | 0.00 | 0.00 | 77 | 1015.4 |
| 20260508205505 | 68 | 122 | 8.0 | 12.0 | 0.00 | 0.00 | 0.00 | 77 | 1015.5 |
| 20260508205004 | 68 | 104 | 8.0 | 12.0 | 0.00 | 0.00 | 0.00 | 78 | 1015.4 |
| 20260508204527 | 68 | 107 | 10.0 | 12.0 | 0.00 | 0.00 | 0.00 | 77 | 1015.4 |
| 20260508204013 | 68 | 104 | 9.0 | 12.0 | 0.00 | 0.00 | 0.00 | 77 | 1015.4 |
| 20260508203509 | 68 | 121 | 9.0 | 15.0 | 0.00 | 0.00 | 0.00 | 76 | 1015.4 |
| 20260508203024 | 68 | 118 | 11.0 | 15.0 | 0.00 | 0.00 | 0.00 | 75 | 1015.2 |
| 20260508202504 | 67 | 112 | 11.0 | 17.0 | 0.00 | 0.00 | 0.00 | 76 | 1014.8 |
| 20260508202004 | 67 | 109 | 13.0 | 17.0 | 0.00 | 0.00 | 0.00 | 74 | 1014.8 |
| 20260508201508 | 67 | 102 | 13.0 | 16.0 | 0.00 | 0.00 | 0.00 | 75 | 1014.9 |
| 20260508201001 | 67 | 99 | 11.0 | 14.0 | 0.00 | 0.00 | 0.00 | 75 | 1015.2 |
| 20260508200503 | 67 | 90 | 12.0 | 14.0 | 0.00 | 0.00 | 0.00 | 74 | 1015.4 |
| 20260508200012 | 67 | 98 | 10.0 | 14.0 | 0.00 | 0.00 | 0.00 | 76 | 1015.5 |
| 20260508195505 | 67 | 103 | 11.0 | 15.0 | 0.00 | 0.00 | 0.00 | 74 | 1015.6 |
| 20260508195004 | 67 | 118 | 11.0 | 15.0 | 0.00 | 0.00 | 0.00 | 76 | 1015.6 |
| 20260508194516 | 67 | 97 | 13.0 | 15.0 | 0.00 | 0.00 | 0.00 | 73 | 1015.7 |
| 20260508194006 | 67 | 102 | 12.0 | 15.0 | 0.00 | 0.00 | 0.00 | 74 | 1015.8 |
| 20260508193506 | 67 | 91 | 12.0 | 16.0 | 0.00 | 0.00 | 0.00 | 74 | 1015.9 |
| 20260508193022 | 67 | 102 | 12.0 | 16.0 | 0.00 | 0.00 | 0.00 | 75 | 1016.0 |
| 20260508192511 | 67 | 104 | 11.0 | 16.0 | 0.00 | 0.00 | 0.00 | 76 | 1015.9 |
| 20260508192003 | 67 | 111 | 12.0 | 16.0 | 0.00 | 0.00 | 0.00 | 75 | 1015.9 |
| 20260508191508 | 67 | 102 | 12.0 | 16.0 | 0.00 | 0.00 | 0.00 | 74 | 1015.9 |
| 20260508191004 | 67 | 76 | 12.0 | 15.0 | 0.00 | 0.00 | 0.00 | 72 | 1016.0 |
| 20260508190505 | 67 | 82 | 12.0 | 17.0 | 0.00 | 0.00 | 0.00 | 71 | 1016.0 |
| 20260508190009 | 67 | 94 | 13.0 | 17.0 | 0.00 | 0.00 | 0.00 | 72 | 1016.1 |
| 20260508185503 | 67 | 84 | 12.0 | 17.0 | 0.00 | 0.00 | 0.00 | 74 | 1016.2 |
| 20260508185002 | 67 | 82 | 14.0 | 17.0 | 0.00 | 0.00 | 0.00 | 74 | 1016.2 |
| 20260508184512 | 67 | 77 | 14.0 | 17.0 | 0.00 | 0.00 | 0.00 | 73 | 1016.1 |
| 20260508184005 | 67 | 89 | 15.0 | 17.0 | 0.00 | 0.00 | 0.00 | 73 | 1016.2 |
| 20260508183510 | 67 | 79 | 14.0 | 17.0 | 0.00 | 0.00 | 0.00 | 74 | 1016.3 |
| 20260508183018 | 67 | 76 | 14.0 | 18.0 | 0.00 | 0.00 | 0.00 | 72 | 1016.4 |
| 20260508182507 | 67 | 94 | 13.0 | 18.0 | 0.00 | 0.00 | 0.00 | 73 | 1016.4 |
| 20260508182011 | 67 | 90 | 13.0 | 18.0 | 0.00 | 0.00 | 0.00 | 73 | 1016.3 |
| 20260508181522 | 67 | 91 | 15.0 | 19.0 | 0.00 | 0.00 | 0.00 | 72 | 1016.4 |
| 20260508181010 | 67 | 105 | 15.0 | 19.0 | 0.00 | 0.00 | 0.00 | 73 | 1016.4 |
| 20260508180512 | 67 | 83 | 13.0 | 19.0 | 0.00 | 0.00 | 0.00 | 74 | 1016.5 |
| 20260508180012 | 67 | 103 | 13.0 | 17.0 | 0.00 | 0.00 | 0.00 | 74 | 1016.6 |
| 20260508175505 | 67 | 71 | 14.0 | 19.0 | 0.00 | 0.00 | 0.00 | 71 | 1016.7 |
| 20260508175003 | 66 | 88 | 15.0 | 19.0 | 0.00 | 0.00 | 0.00 | 71 | 1016.9 |
| 20260508174513 | 67 | 75 | 14.0 | 19.0 | 0.00 | 0.00 | 0.00 | 74 | 1017.0 |
| 20260508174004 | 66 | 77 | 14.0 | 18.0 | 0.00 | 0.00 | 0.00 | 71 | 1016.8 |
| 20260508173506 | 66 | 80 | 14.0 | 18.0 | 0.00 | 0.00 | 0.00 | 71 | 1016.8 |
| 20260508173016 | 67 | 81 | 14.0 | 18.0 | 0.00 | 0.00 | 0.00 | 75 | 1016.9 |
| 20260508172507 | 66 | 79 | 15.0 | 19.0 | 0.00 | 0.00 | 0.00 | 74 | 1017.0 |
| 20260508172008 | 66 | 75 | 15.0 | 19.0 | 0.00 | 0.00 | 0.00 | 72 | 1017.0 |
| 20260508171525 | 66 | 82 | 15.0 | 20.0 | 0.00 | 0.00 | 0.00 | 72 | 1016.9 |
| 20260508171008 | 66 | 65 | 15.0 | 20.0 | 0.00 | 0.00 | 0.00 | 73 | 1016.8 |
| 20260508170507 | 66 | 92 | 17.0 | 20.0 | 0.00 | 0.00 | 0.00 | 72 | 1016.9 |
| 20260508170023 | 66 | 73 | 17.0 | 20.0 | 0.00 | 0.00 | 0.00 | 72 | 1017.0 |
| 20260508165508 | 66 | 67 | 16.0 | 19.0 | 0.00 | 0.00 | 0.00 | 70 | 1017.0 |
| 20260508165011 | 66 | 84 | 15.0 | 18.0 | 0.00 | 0.00 | 0.00 | 73 | 1017.1 |
| 20260508164508 | 66 | 73 | 15.0 | 18.0 | 0.00 | 0.00 | 0.00 | 71 | 1017.1 |
| 20260508164006 | 66 | 77 | 15.0 | 17.0 | 0.00 | 0.00 | 0.00 | 70 | 1017.2 |
| 20260508163505 | 66 | 75 | 15.0 | 17.0 | 0.00 | 0.00 | 0.00 | 71 | 1017.3 |
| 20260508163012 | 66 | 76 | 14.0 | 17.0 | 0.00 | 0.00 | 0.00 | 68 | 1017.4 |
| 20260508162507 | 66 | 74 | 13.0 | 16.0 | 0.00 | 0.00 | 0.00 | 69 | 1017.5 |
| 20260508162006 | 66 | 74 | 13.0 | 16.0 | 0.00 | 0.00 | 0.00 | 65 | 1017.5 |
| 20260508161517 | 66 | 71 | 13.0 | 18.0 | 0.00 | 0.00 | 0.00 | 65 | 1017.6 |
| 20260508161007 | 66 | 67 | 13.0 | 18.0 | 0.00 | 0.00 | 0.00 | 65 | 1017.6 |
| 20260508160510 | 66 | 61 | 13.0 | 17.0 | 0.00 | 0.00 | 0.00 | 68 | 1017.6 |
| 20260508160048 | 66 | 68 | 12.0 | 16.0 | 0.00 | 0.00 | 0.00 | 65 | 1017.6 |
| 20260508155508 | 66 | 67 | 13.0 | 16.0 | 0.00 | 0.00 | 0.00 | 65 | 1017.7 |
| 20260508155011 | 66 | 64 | 13.0 | 17.0 | 0.00 | 0.00 | 0.00 | 64 | 1017.9 |
| 20260508154525 | 66 | 67 | 13.0 | 17.0 | 0.00 | 0.00 | 0.00 | 64 | 1017.9 |
| 20260508154012 | 66 | 63 | 13.0 | 17.0 | 0.00 | 0.00 | 0.00 | 64 | 1017.9 |
| 20260508153510 | 66 | 65 | 13.0 | 17.0 | 0.00 | 0.00 | 0.00 | 66 | 1017.9 |
| 20260508153029 | 66 | 69 | 13.0 | 17.0 | 0.00 | 0.00 | 0.00 | 68 | 1017.9 |
| 20260508152507 | 66 | 72 | 14.0 | 17.0 | 0.00 | 0.00 | 0.00 | 65 | 1017.9 |
| 20260508152004 | 66 | 47 | 10.0 | 15.0 | 0.00 | 0.00 | 0.00 | 68 | 1017.9 |
| 20260508151512 | 66 | 40 | 9.0 | 15.0 | 0.00 | 0.00 | 0.00 | 69 | 1017.8 |
| 20260508151005 | 66 | 51 | 12.0 | 15.0 | 0.00 | 0.00 | 0.00 | 68 | 1017.8 |